Location: Volkssternwarte_EN
(51.3230°N, 7.4010°E)
Time: 09:21:22
(UTC+02:00)

ISS - Visible Passes

Search period start: 23 September 2017 00:00
Search period end: 03 October 2017 00:00
Orbit: 401 x 407 km, 51.6° (Epoch: 23 September)

Date Brightness Start Highest point End Pass type
(mag) Time Alt. Az. Time Alt. Az. Time Alt. Az.
25 Sep -1.1 21:19:22 10° SSW 21:19:28 10° SSW 21:19:28 10° SSW visible
26 Sep -1.9 20:28:00 10° S 20:29:49 14° SE 20:29:49 14° SE visible
27 Sep -2.7 21:10:26 10° SW 21:12:38 31° S 21:12:38 31° S visible
28 Sep -2.6 20:18:30 10° SSW 20:21:14 25° SSE 20:22:37 19° ESE visible
28 Sep -1.5 21:54:08 10° WSW 21:55:16 20° WSW 21:55:16 20° WSW visible
29 Sep -3.8 21:01:49 10° WSW 21:05:02 59° SSE 21:05:07 59° SSE visible
30 Sep -3.3 20:09:36 10° SW 20:12:42 42° SSE 20:14:52 17° E visible
30 Sep -1.9 21:45:46 10° W 21:47:30 29° W 21:47:30 29° W visible
01 Oct -3.9 20:53:20 10° WSW 20:56:38 83° SSE 20:57:10 59° E visible
02 Oct -3.8 20:00:58 10° WSW 20:04:13 65° SSE 20:06:45 15° E visible
02 Oct -2.2 21:37:23 10° W 21:39:24 34° W 21:39:24 34° W visible
